Year,Month,Day,Hour,Minute,Value (Times are PST for temperature in C)
2015,08,12,00,00,19.50
2015,08,12,00,01,19.50
2015,08,12,00,02,19.50
2015,08,12,00,03,19.50
2015,08,12,00,04,19.40
2015,08,12,00,05,19.40
2015,08,12,00,06,19.40
2015,08,12,00,07,19.40
2015,08,12,00,08,19.40
2015,08,12,00,09,19.40
2015,08,12,00,10,19.40
2015,08,12,00,11,19.40
2015,08,12,00,12,19.40
2015,08,12,00,13,19.40
2015,08,12,00,14,19.40
2015,08,12,00,15,19.30
2015,08,12,00,16,19.30
2015,08,12,00,17,19.30
2015,08,12,00,18,19.30
2015,08,12,00,19,19.30
2015,08,12,00,20,19.30
2015,08,12,00,21,19.20
2015,08,12,00,22,19.20
2015,08,12,00,23,19.20
2015,08,12,00,24,19.10
2015,08,12,00,25,19.10
2015,08,12,00,26,19.10
2015,08,12,00,27,19.00
2015,08,12,00,28,19.00
2015,08,12,00,29,18.90
2015,08,12,00,30,18.90
2015,08,12,00,31,18.90
2015,08,12,00,32,18.80
2015,08,12,00,33,18.80
2015,08,12,00,34,18.80
2015,08,12,00,35,18.70
2015,08,12,00,36,18.70
2015,08,12,00,37,18.70
2015,08,12,00,38,18.70
2015,08,12,00,39,18.70
2015,08,12,00,40,18.60
2015,08,12,00,41,18.60
2015,08,12,00,42,18.60
2015,08,12,00,43,18.60
2015,08,12,00,44,18.60
2015,08,12,00,45,18.60
2015,08,12,00,46,18.60
2015,08,12,00,47,18.50
2015,08,12,00,48,18.50
2015,08,12,00,49,18.50
2015,08,12,00,50,18.50
2015,08,12,00,51,18.40
2015,08,12,00,52,18.40
2015,08,12,00,53,18.30
2015,08,12,00,54,18.30
2015,08,12,00,55,18.30
2015,08,12,00,56,18.30
2015,08,12,00,57,18.20
2015,08,12,00,58,18.20
2015,08,12,00,59,18.20
2015,08,12,01,00,18.20
2015,08,12,01,01,18.10
2015,08,12,01,02,18.10
2015,08,12,01,03,18.10
2015,08,12,01,04,18.10
2015,08,12,01,05,18.10
2015,08,12,01,06,18.10
2015,08,12,01,07,18.10
2015,08,12,01,08,18.10
2015,08,12,01,09,18.10
2015,08,12,01,10,18.10
2015,08,12,01,11,18.10
2015,08,12,01,12,18.10
2015,08,12,01,13,18.10
2015,08,12,01,14,18.10
2015,08,12,01,15,18.10
2015,08,12,01,16,18.10
2015,08,12,01,17,18.10
2015,08,12,01,18,18.10
2015,08,12,01,19,18.10
2015,08,12,01,20,18.10
2015,08,12,01,21,18.10
2015,08,12,01,22,18.10
2015,08,12,01,23,18.10
2015,08,12,01,24,18.10
2015,08,12,01,25,18.10
2015,08,12,01,26,18.10
2015,08,12,01,27,18.00
2015,08,12,01,28,18.00
2015,08,12,01,29,18.00
2015,08,12,01,30,18.00
2015,08,12,01,31,18.00
2015,08,12,01,32,18.00
2015,08,12,01,33,18.00
2015,08,12,01,34,18.00
2015,08,12,01,35,18.00
2015,08,12,01,36,18.00
2015,08,12,01,37,18.00
2015,08,12,01,38,17.90
2015,08,12,01,39,17.90
2015,08,12,01,40,17.90
2015,08,12,01,41,17.90
2015,08,12,01,42,17.90
2015,08,12,01,43,17.90
2015,08,12,01,44,17.80
2015,08,12,01,45,17.80
2015,08,12,01,46,17.70
2015,08,12,01,47,17.70
2015,08,12,01,48,17.70
2015,08,12,01,49,17.60
2015,08,12,01,50,17.60
2015,08,12,01,51,17.50
2015,08,12,01,52,17.50
2015,08,12,01,53,17.40
2015,08,12,01,54,17.40
2015,08,12,01,55,17.40
2015,08,12,01,56,17.30
2015,08,12,01,57,17.30
2015,08,12,01,58,17.30
2015,08,12,01,59,17.30
2015,08,12,02,00,17.20
2015,08,12,02,01,17.20
2015,08,12,02,02,17.20
2015,08,12,02,03,17.20
2015,08,12,02,04,17.20
2015,08,12,02,05,17.20
2015,08,12,02,06,17.20
2015,08,12,02,07,17.20
2015,08,12,02,08,17.20
2015,08,12,02,09,17.20
2015,08,12,02,10,17.20
2015,08,12,02,11,17.10
2015,08,12,02,12,17.10
2015,08,12,02,13,17.10
2015,08,12,02,14,17.10
2015,08,12,02,15,17.00
2015,08,12,02,16,17.00
2015,08,12,02,17,17.00
2015,08,12,02,18,17.00
2015,08,12,02,19,16.90
2015,08,12,02,20,16.90
2015,08,12,02,21,16.90
2015,08,12,02,22,16.90
2015,08,12,02,23,16.90
2015,08,12,02,24,17.00
2015,08,12,02,25,17.00
2015,08,12,02,26,17.00
2015,08,12,02,27,17.00
2015,08,12,02,28,17.00
2015,08,12,02,29,17.10
2015,08,12,02,30,17.10
2015,08,12,02,31,17.00
2015,08,12,02,32,17.00
2015,08,12,02,33,17.10
2015,08,12,02,34,17.10
2015,08,12,02,35,17.10
2015,08,12,02,36,17.10
2015,08,12,02,37,17.20
2015,08,12,02,38,17.20
2015,08,12,02,39,17.20
2015,08,12,02,40,17.20
2015,08,12,02,41,17.20
2015,08,12,02,42,17.20
2015,08,12,02,43,17.20
2015,08,12,02,44,17.20
2015,08,12,02,45,17.10
2015,08,12,02,46,17.10
2015,08,12,02,47,17.00
2015,08,12,02,48,17.00
2015,08,12,02,49,16.90
2015,08,12,02,50,16.80
2015,08,12,02,51,16.80
2015,08,12,02,52,16.70
2015,08,12,02,53,16.70
2015,08,12,02,54,16.60
2015,08,12,02,55,16.60
2015,08,12,02,56,16.60
2015,08,12,02,57,16.50
2015,08,12,02,58,16.50
2015,08,12,02,59,16.50
2015,08,12,03,00,16.50
2015,08,12,03,01,16.50
2015,08,12,03,02,16.50
2015,08,12,03,03,16.50
2015,08,12,03,04,16.50
2015,08,12,03,05,16.50
2015,08,12,03,06,16.50
2015,08,12,03,07,16.40
2015,08,12,03,08,16.40
2015,08,12,03,09,16.40
2015,08,12,03,10,16.40
2015,08,12,03,11,16.40
2015,08,12,03,12,16.40
2015,08,12,03,13,16.40
2015,08,12,03,14,16.40
2015,08,12,03,15,16.50
2015,08,12,03,16,16.50
2015,08,12,03,17,16.50
2015,08,12,03,18,16.60
2015,08,12,03,19,16.60
2015,08,12,03,20,16.60
2015,08,12,03,21,16.70
2015,08,12,03,22,16.70
2015,08,12,03,23,16.70
2015,08,12,03,24,16.70
2015,08,12,03,25,16.80
2015,08,12,03,26,16.80
2015,08,12,03,27,16.80
2015,08,12,03,28,16.90
2015,08,12,03,29,16.90
2015,08,12,03,30,16.90
2015,08,12,03,31,16.90
2015,08,12,03,32,16.90
2015,08,12,03,33,17.00
2015,08,12,03,34,17.00
2015,08,12,03,35,17.00
2015,08,12,03,36,17.00
2015,08,12,03,37,17.00
2015,08,12,03,38,17.00
2015,08,12,03,39,17.00
2015,08,12,03,40,17.00
2015,08,12,03,41,16.90
2015,08,12,03,42,16.90
2015,08,12,03,43,16.90
2015,08,12,03,44,16.90
2015,08,12,03,45,16.90
2015,08,12,03,46,16.90
2015,08,12,03,47,16.90
2015,08,12,03,48,16.90
2015,08,12,03,49,16.90
2015,08,12,03,50,16.90
2015,08,12,03,51,16.80
2015,08,12,03,52,16.80
2015,08,12,03,53,16.80
2015,08,12,03,54,16.80
2015,08,12,03,55,16.80
2015,08,12,03,56,16.80
2015,08,12,03,57,16.80
2015,08,12,03,58,16.80
2015,08,12,03,59,16.80
2015,08,12,04,00,16.80
2015,08,12,04,01,16.80
2015,08,12,04,02,16.80
2015,08,12,04,03,16.80
2015,08,12,05,02,15.70
2015,08,12,05,03,15.60
2015,08,12,05,04,15.60
2015,08,12,05,05,15.60
2015,08,12,05,06,15.60
2015,08,12,05,07,15.60
2015,08,12,05,08,15.60
2015,08,12,05,09,15.60
2015,08,12,05,10,15.60
2015,08,12,05,11,15.60
2015,08,12,05,12,15.60
2015,08,12,05,13,15.60
2015,08,12,05,14,15.60
2015,08,12,05,15,15.60
2015,08,12,05,16,15.70
2015,08,12,05,17,15.70
2015,08,12,05,18,15.70
2015,08,12,05,19,15.70
2015,08,12,05,20,15.70
2015,08,12,05,21,15.70
2015,08,12,05,22,15.70
2015,08,12,05,23,15.80
2015,08,12,05,24,15.80
2015,08,12,05,25,15.80
2015,08,12,05,26,15.80
2015,08,12,05,27,15.80
2015,08,12,05,28,15.80
2015,08,12,05,29,15.80
2015,08,12,05,30,15.80
2015,08,12,05,31,15.80
2015,08,12,05,32,15.70
2015,08,12,05,33,15.70
2015,08,12,05,34,15.70
2015,08,12,05,35,15.70
2015,08,12,05,36,15.70
2015,08,12,05,37,15.60
2015,08,12,05,38,15.60
2015,08,12,05,39,15.60
2015,08,12,05,40,15.60
2015,08,12,05,41,15.50
2015,08,12,05,42,15.50
2015,08,12,05,43,15.40
2015,08,12,05,44,15.40
2015,08,12,05,45,15.30
2015,08,12,05,46,15.30
2015,08,12,05,47,15.30
2015,08,12,05,48,15.30
2015,08,12,05,49,15.30
2015,08,12,05,50,15.30
2015,08,12,05,51,15.30
2015,08,12,05,52,15.30
2015,08,12,05,53,15.30
2015,08,12,05,54,15.30
2015,08,12,05,55,15.30
2015,08,12,05,56,15.30
2015,08,12,05,57,15.40
2015,08,12,05,58,15.40
2015,08,12,05,59,15.40
2015,08,12,06,00,15.50
2015,08,12,06,01,15.50
2015,08,12,06,02,15.60
2015,08,12,06,03,15.60
2015,08,12,06,04,15.60
2015,08,12,06,05,15.70
2015,08,12,06,06,15.70
2015,08,12,06,07,15.70
2015,08,12,06,08,15.70
2015,08,12,06,09,15.80
2015,08,12,06,10,15.80
2015,08,12,06,11,15.80
2015,08,12,06,12,15.80
2015,08,12,06,13,15.80
2015,08,12,06,14,15.80
2015,08,12,06,15,15.80
2015,08,12,06,16,15.80
2015,08,12,06,17,15.80
2015,08,12,06,18,15.70
2015,08,12,06,19,15.70
2015,08,12,06,20,15.70
2015,08,12,06,21,15.70
2015,08,12,06,22,15.70
2015,08,12,06,23,15.70
2015,08,12,06,24,15.70
2015,08,12,06,25,15.60
2015,08,12,06,26,15.60
2015,08,12,06,27,15.60
2015,08,12,06,28,15.60
2015,08,12,06,29,15.60
2015,08,12,06,30,15.60
2015,08,12,06,31,15.60
2015,08,12,06,32,15.60
2015,08,12,06,33,15.60
2015,08,12,06,34,15.60
2015,08,12,06,35,15.60
2015,08,12,06,36,15.60
2015,08,12,06,37,15.60
2015,08,12,06,38,15.60
2015,08,12,06,39,15.60
2015,08,12,06,40,15.60
2015,08,12,06,41,15.60
2015,08,12,06,42,15.60
2015,08,12,06,43,15.60
2015,08,12,06,44,15.60
2015,08,12,06,45,15.60
2015,08,12,06,46,15.60
2015,08,12,06,47,15.60
2015,08,12,06,48,15.60
2015,08,12,06,49,15.60
2015,08,12,06,50,15.70
2015,08,12,06,51,15.70
2015,08,12,06,52,15.70
2015,08,12,06,53,15.70
2015,08,12,06,54,15.70
2015,08,12,06,55,15.70
2015,08,12,06,56,15.70
2015,08,12,06,57,15.80
2015,08,12,06,58,15.80
2015,08,12,06,59,15.80
2015,08,12,07,00,15.80
2015,08,12,07,01,15.80
2015,08,12,07,02,15.90
2015,08,12,07,03,15.90
2015,08,12,07,04,15.90
2015,08,12,07,05,15.90
2015,08,12,07,06,16.00
2015,08,12,07,07,16.00
2015,08,12,07,08,16.10
2015,08,12,07,09,16.10
2015,08,12,07,10,16.10
2015,08,12,07,11,16.20
2015,08,12,07,12,16.20
2015,08,12,07,13,16.30
2015,08,12,07,14,16.30
2015,08,12,07,15,16.30
2015,08,12,07,16,16.30
2015,08,12,07,17,16.40
2015,08,12,07,18,16.40
2015,08,12,07,19,16.40
2015,08,12,07,20,16.50
2015,08,12,07,21,16.50
2015,08,12,07,22,16.60
2015,08,12,07,23,16.60
2015,08,12,07,24,16.60
2015,08,12,07,25,16.60
2015,08,12,07,26,16.60
2015,08,12,07,27,16.60
2015,08,12,07,28,16.60
2015,08,12,07,29,16.70
2015,08,12,07,30,16.70
2015,08,12,07,31,16.70
2015,08,12,07,32,16.70
2015,08,12,07,33,16.80
2015,08,12,07,34,16.80
2015,08,12,07,35,16.80
2015,08,12,07,36,16.90
2015,08,12,07,37,16.90
2015,08,12,07,38,16.90
2015,08,12,07,39,16.90
2015,08,12,07,40,17.00
2015,08,12,07,41,17.00
2015,08,12,07,42,17.00
2015,08,12,07,43,17.00
2015,08,12,07,44,17.10
2015,08,12,07,45,17.10
2015,08,12,07,46,17.10
2015,08,12,07,47,17.10
2015,08,12,07,48,17.10
2015,08,12,07,49,17.10
2015,08,12,07,50,17.20
2015,08,12,07,51,17.20
2015,08,12,07,52,17.20
2015,08,12,07,53,17.20
2015,08,12,07,54,17.30
2015,08,12,07,55,17.30
2015,08,12,07,56,17.30
2015,08,12,07,57,17.30
2015,08,12,07,58,17.40
2015,08,12,07,59,17.40
2015,08,12,08,00,17.40
2015,08,12,08,01,17.50
2015,08,12,08,02,17.60
2015,08,12,08,03,17.60
2015,08,12,08,04,17.70
2015,08,12,08,05,17.70
2015,08,12,08,06,17.80
2015,08,12,08,07,17.80
2015,08,12,08,08,17.80
2015,08,12,08,09,17.90
2015,08,12,08,10,17.90
2015,08,12,08,11,17.90
2015,08,12,08,12,18.00
2015,08,12,08,13,18.00
2015,08,12,08,14,18.00
2015,08,12,08,15,18.10
2015,08,12,08,16,18.20
2015,08,12,08,17,18.20
2015,08,12,08,18,18.30
2015,08,12,08,19,18.40
2015,08,12,08,20,18.40
2015,08,12,08,21,18.50
2015,08,12,08,22,18.60
2015,08,12,08,23,18.60
2015,08,12,08,24,18.60
2015,08,12,08,25,18.60
2015,08,12,08,26,18.60
2015,08,12,08,27,18.60
2015,08,12,08,28,18.60
2015,08,12,08,29,18.60
2015,08,12,08,30,18.60
2015,08,12,08,31,18.60
2015,08,12,08,32,18.70
2015,08,12,08,33,18.70
2015,08,12,08,34,18.70
2015,08,12,08,35,18.70
2015,08,12,08,36,18.70
2015,08,12,08,37,18.80
2015,08,12,08,38,18.80
2015,08,12,08,39,18.90
2015,08,12,08,40,18.90
2015,08,12,08,41,18.90
2015,08,12,08,42,19.00
2015,08,12,08,43,19.10
2015,08,12,08,44,19.20
2015,08,12,08,45,19.20
2015,08,12,08,46,19.30
2015,08,12,08,47,19.30
2015,08,12,08,48,19.20
2015,08,12,08,49,19.20
2015,08,12,08,50,19.20
2015,08,12,08,51,19.20
2015,08,12,08,52,19.20
2015,08,12,08,53,19.20
2015,08,12,08,54,19.20
2015,08,12,08,55,19.20
2015,08,12,08,56,19.20
2015,08,12,08,57,19.30
2015,08,12,08,58,19.30
2015,08,12,08,59,19.30
2015,08,12,09,00,19.30
2015,08,12,09,01,19.30
2015,08,12,09,02,19.30
2015,08,12,09,03,19.30
2015,08,12,09,04,19.30
2015,08,12,09,05,19.30
2015,08,12,09,06,19.30
2015,08,12,09,07,19.30
2015,08,12,09,08,19.40
2015,08,12,09,09,19.40
2015,08,12,09,10,19.50
2015,08,12,09,11,19.50
2015,08,12,09,12,19.60
2015,08,12,09,13,19.60
2015,08,12,09,14,19.60
2015,08,12,09,15,19.60
2015,08,12,09,16,19.50
2015,08,12,09,17,19.50
2015,08,12,09,18,19.50
2015,08,12,09,19,19.40
2015,08,12,09,20,19.50
2015,08,12,09,21,19.50
2015,08,12,09,22,19.40
2015,08,12,09,23,19.40
2015,08,12,09,24,19.30
2015,08,12,09,25,19.30
2015,08,12,09,26,19.30
2015,08,12,09,27,19.30
2015,08,12,09,28,19.30
2015,08,12,09,29,19.30
2015,08,12,09,30,19.30
2015,08,12,09,31,19.30
2015,08,12,09,32,19.30
2015,08,12,09,33,19.30
2015,08,12,09,34,19.30
2015,08,12,09,35,19.30
2015,08,12,09,36,19.30
2015,08,12,09,37,19.30
2015,08,12,09,38,19.30
2015,08,12,09,39,19.40
2015,08,12,09,40,19.50
2015,08,12,09,41,19.50
2015,08,12,09,42,19.60
2015,08,12,09,43,19.60
2015,08,12,09,44,19.70
2015,08,12,09,45,19.70
2015,08,12,09,46,19.70
2015,08,12,09,47,19.70
2015,08,12,09,48,19.70
2015,08,12,09,49,19.70
2015,08,12,09,50,19.70
2015,08,12,09,51,19.80
2015,08,12,09,52,19.80
2015,08,12,09,53,19.80
2015,08,12,09,54,19.90
2015,08,12,09,55,19.90
2015,08,12,09,56,20.00
2015,08,12,09,57,20.10
2015,08,12,09,58,20.10
2015,08,12,09,59,20.10
2015,08,12,10,00,20.20
2015,08,12,10,01,20.30
2015,08,12,10,02,20.30
2015,08,12,10,03,20.40
2015,08,12,10,04,20.40
2015,08,12,10,05,20.40
2015,08,12,10,06,20.40
2015,08,12,10,07,20.50
2015,08,12,10,08,20.50
2015,08,12,10,09,20.50
2015,08,12,10,10,20.60
2015,08,12,10,11,20.60
2015,08,12,10,12,20.70
2015,08,12,10,13,20.80
2015,08,12,10,14,20.90
2015,08,12,10,15,21.00
2015,08,12,10,16,21.10
2015,08,12,10,17,21.10
2015,08,12,10,18,21.20
2015,08,12,10,19,21.30
2015,08,12,10,20,21.40
2015,08,12,10,21,21.40
2015,08,12,10,22,21.50
2015,08,12,10,23,21.50
2015,08,12,10,24,21.60
2015,08,12,10,25,21.60
2015,08,12,10,26,21.70
2015,08,12,10,27,21.60
2015,08,12,10,28,21.60
2015,08,12,10,29,21.50
2015,08,12,10,30,21.40
2015,08,12,10,31,21.40
2015,08,12,10,32,21.30
2015,08,12,10,33,21.20
2015,08,12,10,34,21.20
2015,08,12,10,35,21.20
2015,08,12,10,36,21.20
2015,08,12,10,37,21.10
2015,08,12,10,38,21.10
2015,08,12,10,39,21.10
2015,08,12,10,40,21.10
2015,08,12,10,41,21.10
2015,08,12,10,42,21.20
2015,08,12,10,43,21.30
2015,08,12,10,44,21.30
2015,08,12,10,45,21.30
2015,08,12,10,46,21.40
2015,08,12,10,47,21.40
2015,08,12,10,48,21.40
2015,08,12,10,49,21.30
2015,08,12,10,50,21.30
2015,08,12,10,51,21.20
2015,08,12,10,52,21.30
2015,08,12,10,53,21.30
2015,08,12,10,54,21.30
2015,08,12,10,55,21.40
2015,08,12,10,56,21.50
2015,08,12,10,57,21.60
2015,08,12,10,58,21.70
2015,08,12,10,59,21.70
2015,08,12,11,00,21.60
2015,08,12,11,01,21.60
2015,08,12,11,02,21.60
2015,08,12,11,03,21.50
2015,08,12,11,04,21.40
2015,08,12,11,05,21.40
2015,08,12,11,06,21.30
2015,08,12,11,07,21.40
2015,08,12,11,08,21.40
2015,08,12,11,09,21.40
2015,08,12,11,10,21.50
2015,08,12,11,11,21.50
2015,08,12,11,12,21.50
2015,08,12,11,13,21.50
2015,08,12,11,14,21.60
2015,08,12,11,15,21.60
2015,08,12,11,16,21.70
2015,08,12,11,17,21.80
2015,08,12,11,18,21.90
2015,08,12,11,19,21.90
2015,08,12,11,20,21.90
2015,08,12,11,21,21.90
2015,08,12,11,22,21.90
2015,08,12,11,23,21.90
2015,08,12,11,24,22.00
2015,08,12,11,25,22.20
2015,08,12,11,26,22.30
2015,08,12,11,27,22.40
2015,08,12,11,28,22.40
2015,08,12,11,29,22.40
2015,08,12,11,30,22.50
2015,08,12,11,31,22.60
2015,08,12,11,32,22.70
2015,08,12,11,33,22.70
2015,08,12,11,34,22.70
2015,08,12,11,35,22.70
2015,08,12,11,36,22.60
2015,08,12,11,37,22.60
2015,08,12,11,38,22.60
2015,08,12,11,39,22.60
2015,08,12,11,40,22.60
2015,08,12,11,41,22.60
2015,08,12,11,42,22.50
2015,08,12,11,43,22.50
2015,08,12,11,44,22.50
2015,08,12,11,45,22.60
2015,08,12,11,46,22.60
2015,08,12,11,47,22.60
2015,08,12,11,48,22.60
2015,08,12,11,49,22.60
2015,08,12,11,50,22.80
2015,08,12,11,51,23.00
2015,08,12,11,52,23.20
2015,08,12,11,53,23.30
2015,08,12,11,54,23.40
2015,08,12,11,55,23.60
2015,08,12,11,56,23.70
2015,08,12,11,57,23.70
2015,08,12,11,58,23.70
2015,08,12,11,59,23.80
2015,08,12,12,00,23.90
2015,08,12,12,01,24.00
2015,08,12,12,02,24.10
2015,08,12,12,03,24.10
2015,08,12,12,04,24.00
2015,08,12,12,05,24.00
2015,08,12,12,06,24.00
2015,08,12,12,07,24.10
2015,08,12,12,08,24.00
2015,08,12,12,09,24.00
2015,08,12,12,10,24.00
2015,08,12,12,11,24.10
2015,08,12,12,12,24.20
2015,08,12,12,13,24.30
2015,08,12,12,14,24.50
2015,08,12,12,15,24.60
2015,08,12,12,16,24.70
2015,08,12,12,17,24.80
2015,08,12,12,18,24.80
2015,08,12,12,19,24.80
2015,08,12,12,20,24.80
2015,08,12,12,21,24.90
2015,08,12,12,22,25.00
2015,08,12,12,23,25.10
2015,08,12,12,24,25.20
2015,08,12,12,25,25.30
2015,08,12,12,26,25.40
2015,08,12,12,27,25.40
2015,08,12,12,28,25.50
2015,08,12,12,29,25.60
2015,08,12,12,30,25.60
2015,08,12,12,31,25.70
2015,08,12,12,32,25.70
2015,08,12,12,33,25.60
2015,08,12,12,34,25.50
2015,08,12,12,35,25.40
2015,08,12,12,36,25.30
2015,08,12,12,37,25.20
2015,08,12,12,38,25.20
2015,08,12,12,39,25.10
2015,08,12,12,40,25.10
2015,08,12,12,41,25.20
2015,08,12,12,42,25.30
2015,08,12,12,43,25.30
2015,08,12,12,44,25.30
2015,08,12,12,45,25.30
2015,08,12,12,46,25.30
2015,08,12,12,47,25.30
2015,08,12,12,48,25.40
2015,08,12,12,49,25.40
2015,08,12,12,50,25.30
2015,08,12,12,51,25.30
2015,08,12,12,52,25.30
2015,08,12,12,53,25.30
2015,08,12,12,54,25.40
2015,08,12,12,55,25.40
2015,08,12,12,56,25.50
2015,08,12,12,57,25.60
2015,08,12,12,58,25.70
2015,08,12,12,59,25.80
2015,08,12,13,00,25.80
2015,08,12,13,01,25.90
2015,08,12,13,02,26.00
2015,08,12,13,03,26.00
2015,08,12,13,04,26.10
2015,08,12,13,05,26.00
2015,08,12,13,06,25.90
2015,08,12,13,07,25.80
2015,08,12,13,08,25.80
2015,08,12,13,09,25.70
2015,08,12,13,10,25.70
2015,08,12,13,11,25.80
2015,08,12,13,12,25.80
2015,08,12,13,13,25.80
2015,08,12,13,14,25.90
2015,08,12,13,15,25.90
2015,08,12,13,16,25.90
2015,08,12,13,17,26.00
2015,08,12,13,18,26.00
2015,08,12,13,19,26.10
2015,08,12,13,20,26.10
2015,08,12,13,21,26.10
2015,08,12,13,22,26.10
2015,08,12,13,23,26.00
2015,08,12,13,24,26.00
2015,08,12,13,25,26.00
2015,08,12,13,26,26.00
2015,08,12,13,27,26.00
2015,08,12,13,28,26.10
2015,08,12,13,29,26.20
2015,08,12,13,30,26.10
2015,08,12,13,31,26.10
2015,08,12,13,32,26.00
2015,08,12,13,33,25.90
2015,08,12,13,34,25.80
2015,08,12,13,35,25.80
2015,08,12,13,36,25.70
2015,08,12,13,37,25.70
2015,08,12,13,38,25.70
2015,08,12,13,39,25.80
2015,08,12,13,40,25.90
2015,08,12,13,41,26.00
2015,08,12,13,42,26.10
2015,08,12,13,43,26.20
2015,08,12,13,44,26.20
2015,08,12,13,45,26.30
2015,08,12,13,46,26.20
2015,08,12,13,47,26.30
2015,08,12,13,48,26.30
2015,08,12,13,49,26.40
2015,08,12,13,50,26.50
2015,08,12,13,51,26.60
2015,08,12,13,52,26.60
2015,08,12,13,53,26.70
2015,08,12,13,54,26.80
2015,08,12,13,55,26.90
2015,08,12,13,56,26.90
2015,08,12,13,57,27.00
2015,08,12,13,58,27.00
2015,08,12,13,59,27.00
2015,08,12,14,00,26.90
2015,08,12,14,01,26.90
2015,08,12,14,02,26.70
2015,08,12,14,03,26.70
2015,08,12,14,04,26.60
2015,08,12,14,05,26.60
2015,08,12,14,06,26.50
2015,08,12,14,07,26.40
2015,08,12,14,08,26.50
2015,08,12,14,09,26.60
2015,08,12,14,10,26.60
2015,08,12,14,11,26.60
2015,08,12,14,12,26.60
2015,08,12,14,13,26.60
2015,08,12,14,14,26.60
2015,08,12,14,15,26.60
2015,08,12,14,16,26.70
2015,08,12,14,17,26.70
2015,08,12,14,18,26.80
2015,08,12,14,19,26.80
2015,08,12,14,20,26.80
2015,08,12,14,21,26.80
2015,08,12,14,22,26.80
2015,08,12,14,23,26.80
2015,08,12,14,24,26.80
2015,08,12,14,25,26.80
2015,08,12,14,26,26.80
2015,08,12,14,27,26.90
2015,08,12,14,28,26.90
2015,08,12,14,29,26.90
2015,08,12,14,30,26.90
2015,08,12,14,31,26.90
2015,08,12,14,32,27.00
2015,08,12,14,33,27.10
2015,08,12,14,34,27.10
2015,08,12,14,35,27.20
2015,08,12,14,36,27.20
2015,08,12,14,37,27.20
2015,08,12,14,38,27.20
2015,08,12,14,39,27.20
2015,08,12,14,40,27.10
2015,08,12,14,41,27.10
2015,08,12,14,42,27.10
2015,08,12,14,43,27.00
2015,08,12,14,44,27.00
2015,08,12,14,45,26.90
2015,08,12,14,46,26.90
2015,08,12,14,47,26.90
2015,08,12,14,48,26.90
2015,08,12,14,49,27.00
2015,08,12,14,50,27.10
2015,08,12,14,51,27.10
2015,08,12,14,52,27.30
2015,08,12,14,53,27.50
2015,08,12,14,54,27.70
2015,08,12,14,55,27.90
2015,08,12,14,56,28.10
2015,08,12,14,57,28.20
2015,08,12,14,58,28.20
2015,08,12,14,59,28.30
2015,08,12,15,00,28.30
2015,08,12,15,01,28.30
2015,08,12,15,02,28.30
2015,08,12,15,03,28.30
2015,08,12,15,04,28.30
2015,08,12,15,05,28.40
2015,08,12,15,06,28.40
2015,08,12,15,07,28.50
2015,08,12,15,08,28.50
2015,08,12,15,09,28.50
2015,08,12,15,10,28.60
2015,08,12,15,11,28.70
2015,08,12,15,12,28.80
2015,08,12,15,13,28.90
2015,08,12,15,14,29.00
2015,08,12,15,15,29.10
2015,08,12,15,16,29.00
2015,08,12,15,17,29.00
2015,08,12,15,18,28.90
2015,08,12,15,19,28.90
2015,08,12,15,20,28.80
2015,08,12,15,21,28.70
2015,08,12,15,22,28.70
2015,08,12,15,23,28.70
2015,08,12,15,24,28.70
2015,08,12,15,25,28.70
2015,08,12,15,26,28.80
2015,08,12,15,27,28.80
2015,08,12,15,28,28.90
2015,08,12,15,29,28.80
2015,08,12,15,30,28.80
2015,08,12,15,31,28.80
2015,08,12,15,32,28.80
2015,08,12,15,33,28.90
2015,08,12,15,34,28.90
2015,08,12,15,35,29.00
2015,08,12,15,36,29.10
2015,08,12,15,37,29.10
2015,08,12,15,38,29.20
2015,08,12,15,39,29.20
2015,08,12,15,40,29.10
2015,08,12,15,41,29.10
2015,08,12,15,42,29.10
2015,08,12,15,43,29.10
2015,08,12,15,44,29.10
2015,08,12,15,45,29.20
2015,08,12,15,46,29.30
2015,08,12,15,47,29.30
2015,08,12,15,48,29.30
2015,08,12,15,49,29.30
2015,08,12,15,50,29.30
2015,08,12,15,51,29.30
2015,08,12,15,52,29.30
2015,08,12,15,53,29.30
2015,08,12,15,54,29.20
2015,08,12,15,55,29.20
2015,08,12,15,56,29.20
2015,08,12,15,57,29.10
2015,08,12,15,58,29.10
2015,08,12,15,59,29.00
2015,08,12,16,00,28.80
2015,08,12,16,01,28.70
2015,08,12,16,02,28.50
2015,08,12,16,03,28.40
2015,08,12,16,04,28.40
2015,08,12,16,05,28.40
2015,08,12,16,06,28.40
2015,08,12,16,07,28.50
2015,08,12,16,08,28.50
2015,08,12,16,09,28.60
2015,08,12,16,10,28.50
2015,08,12,16,11,28.50
2015,08,12,16,12,28.40
2015,08,12,16,13,28.30
2015,08,12,16,14,28.30
2015,08,12,16,15,28.30
2015,08,12,16,16,28.30
2015,08,12,16,17,28.30
2015,08,12,16,18,28.30
2015,08,12,16,19,28.40
2015,08,12,16,20,28.50
2015,08,12,16,21,28.60
2015,08,12,16,22,28.70
2015,08,12,16,23,28.70
2015,08,12,16,24,28.70
2015,08,12,16,25,28.80
2015,08,12,16,26,28.90
2015,08,12,16,27,28.90
2015,08,12,16,28,28.90
2015,08,12,16,29,28.90
2015,08,12,16,30,29.00
2015,08,12,16,31,29.10
2015,08,12,16,32,29.10
2015,08,12,16,33,29.20
2015,08,12,16,34,29.10
2015,08,12,16,35,29.10
2015,08,12,16,36,29.10
2015,08,12,16,37,29.00
2015,08,12,16,38,29.00
2015,08,12,16,39,29.00
2015,08,12,16,40,29.10
2015,08,12,16,41,29.10
2015,08,12,16,42,29.10
2015,08,12,16,43,29.10
2015,08,12,16,44,29.10
2015,08,12,16,45,29.10
2015,08,12,16,46,29.10
2015,08,12,16,47,29.10
2015,08,12,16,48,29.10
2015,08,12,16,49,29.10
2015,08,12,16,50,29.20
2015,08,12,16,51,29.20
2015,08,12,16,52,29.20
2015,08,12,16,53,29.20
2015,08,12,16,54,29.20
2015,08,12,16,55,29.20
2015,08,12,16,56,29.20
2015,08,12,16,57,29.20
2015,08,12,16,58,29.20
2015,08,12,16,59,29.20
2015,08,12,17,00,29.20
2015,08,12,17,01,29.20
2015,08,12,17,02,29.30
2015,08,12,17,03,29.30
2015,08,12,17,04,29.20
2015,08,12,17,05,29.20
2015,08,12,17,06,29.20
2015,08,12,17,07,29.20
2015,08,12,17,08,29.20
2015,08,12,17,09,29.20
2015,08,12,17,10,29.20
2015,08,12,17,11,29.30
2015,08,12,17,12,29.30
2015,08,12,17,13,29.30
2015,08,12,17,14,29.20
2015,08,12,17,15,29.20
2015,08,12,17,16,29.20
2015,08,12,17,17,29.20
2015,08,12,17,18,29.20
2015,08,12,17,19,29.20
2015,08,12,17,20,29.20
2015,08,12,17,21,29.20
2015,08,12,17,22,29.20
2015,08,12,17,23,29.20
2015,08,12,17,24,29.20
2015,08,12,17,25,29.30
2015,08,12,17,26,29.30
2015,08,12,17,27,29.30
2015,08,12,17,28,29.30
2015,08,12,17,29,29.40
2015,08,12,17,30,29.40
2015,08,12,17,31,29.50
2015,08,12,17,32,29.50
2015,08,12,17,33,29.50
2015,08,12,17,34,29.50
2015,08,12,17,35,29.50
2015,08,12,17,36,29.50
2015,08,12,17,37,29.50
2015,08,12,17,38,29.60
2015,08,12,17,39,29.70
2015,08,12,17,40,29.70
2015,08,12,17,41,29.80
2015,08,12,17,42,29.80
2015,08,12,17,43,29.80
2015,08,12,17,44,29.70
2015,08,12,17,45,29.70
2015,08,12,17,46,29.70
2015,08,12,17,47,29.70
2015,08,12,17,48,29.60
2015,08,12,17,49,29.60
2015,08,12,17,50,29.50
2015,08,12,17,51,29.50
2015,08,12,17,52,29.50
2015,08,12,17,53,29.40
2015,08,12,17,54,29.40
2015,08,12,17,55,29.40
2015,08,12,17,56,29.30
2015,08,12,17,57,29.40
2015,08,12,17,58,29.40
2015,08,12,17,59,29.40
2015,08,12,18,00,29.40
2015,08,12,18,01,29.40
2015,08,12,18,02,29.50
2015,08,12,18,03,29.50
2015,08,12,18,04,29.50
2015,08,12,18,05,29.50
2015,08,12,18,06,29.50
2015,08,12,18,07,29.50
2015,08,12,18,08,29.50
2015,08,12,18,09,29.50
2015,08,12,18,10,29.60
2015,08,12,18,11,29.60
2015,08,12,18,12,29.60
2015,08,12,18,13,29.60
2015,08,12,18,14,29.50
2015,08,12,18,15,29.50
2015,08,12,18,16,29.50
2015,08,12,18,17,29.60